Detroit Lakes, MN

10:35 PM CDT on March 27, 2017 (GMT -0500)
Detroit Lakes

Weather History for KDTL - June, 2013

Change the Weather History Date:

Thursday, June 20, 2013

  Actual Average Record
Temperature  
Mean Temperature 69 °F -  
Max Temperature 78 °F 75 °F 123 °F (2002)
Min Temperature 60 °F 51 °F 32 °F (1969)
Cooling Degree Days 4    
Growing Degree Days 19 (Base 50)    
Moisture  
Dew Point 62 °F    
Average Humidity 77    
Maximum Humidity 94    
Minimum Humidity 64    
Precipitation  
Precipitation 4.44 in - - ()
Sea Level Pressure  
Sea Level Pressure 29.93 in    
Wind  
Wind Speed 11 mph (SE)    
Max Wind Speed 22 mph    
Max Gust Speed 32 mph    
Visibility 9 miles    
Events Rain , Thunderstorm    
Averages and records for this station are not official NWS values.
T = Trace of Precipitation, MM = Missing Value Source: NWS Daily Summary

Daily Weather History Graph

Daily Weather History Graph

Search for Another Location

Airport or City:

Trip Planner

Search our weather history database for the weather conditions in past years. The results will help you decide how hot, cold, wet, or windy it might be!

Date:

Astronomy

Jun. 20, 2013 Rise Set
Actual Time 5:29 AM CDT 9:21 PM CDT
Civil Twilight 4:49 AM CDT 10:01 PM CDT
Nautical Twilight 3:55 AM CDT 10:55 PM CDT
Astronomical Twilight 2:34 AM CDT 12:15 AM CDT
Moon 6:18 PM CDT (6/20) 3:05 AM CDT (6/20)
Length of Visible Light 17h 11m
Length of Day
15h 52m
Waxing Gibbous, 89% of the Moon is Illuminated
Jun 20
Waxing Gibbous
Jun 23
Full
Jun 29
Last Quarter
Jul 8
New
Jul 15
First Quarter

Hourly Weather History & Observations

Time (CDT) Temp. Dew Point Humidity Pressure Visibility Wind Dir Wind Speed Gust Speed Precip Events Conditions
12:15 AM 71.6 °F 59.0 °F 64% 29.92 in 10.0 mi SE 11.5 mph - N/A   Clear
12:36 AM 71.6 °F 59.0 °F 64% 29.93 in 10.0 mi SE 10.4 mph - N/A   Clear
12:55 AM 71.6 °F 59.0 °F 64% 29.93 in 10.0 mi SE 10.4 mph - N/A   Clear
1:15 AM 71.6 °F 59.0 °F 64% 29.92 in 10.0 mi SE 9.2 mph - N/A   Clear
1:36 AM 69.8 °F 59.0 °F 68% 29.93 in 10.0 mi SSE 6.9 mph - N/A   Clear
1:55 AM 69.8 °F 59.0 °F 68% 29.93 in 10.0 mi SE 8.1 mph - N/A Thunderstorm Clear
2:15 AM 69.8 °F 59.0 °F 68% 29.92 in 10.0 mi SSE 9.2 mph - N/A   Clear
2:36 AM 69.8 °F 59.0 °F 68% 29.92 in 10.0 mi SE 8.1 mph - N/A   Clear
2:55 AM 69.8 °F 60.8 °F 73% 29.92 in 10.0 mi SE 9.2 mph - N/A   Clear
3:15 AM 69.8 °F 59.0 °F 68% 29.92 in 10.0 mi SE 6.9 mph - N/A   Clear
3:36 AM 68.0 °F 60.8 °F 78% 29.91 in 10.0 mi SSE 6.9 mph - N/A   Clear
3:55 AM 68.0 °F 60.8 °F 78% 29.91 in 10.0 mi South 5.8 mph - N/A   Clear
4:15 AM 69.8 °F 60.8 °F 73% 29.92 in 10.0 mi South 6.9 mph - N/A   Clear
4:35 AM 68.0 °F 60.8 °F 78% 29.90 in 10.0 mi South 8.1 mph - N/A   Clear
4:56 AM 69.8 °F 60.8 °F 73% 29.90 in 10.0 mi SW 9.2 mph - N/A   Clear
5:15 AM 69.8 °F 60.8 °F 73% 29.93 in 10.0 mi SSW 11.5 mph - N/A   Clear
5:35 AM 68.0 °F 59.0 °F 73% 29.92 in 10.0 mi West 3.5 mph - N/A   Clear
5:55 AM 66.2 °F 59.0 °F 78% 29.92 in 10.0 mi ESE 3.5 mph - N/A   Clear
6:15 AM 66.2 °F 59.0 °F 78% 29.91 in 10.0 mi ESE 4.6 mph - N/A   Clear
6:36 AM 68.0 °F 59.0 °F 73% 29.95 in 10.0 mi SE 5.8 mph - N/A   Clear
6:55 AM 68.0 °F 59.0 °F 73% 29.94 in 10.0 mi SE 12.7 mph - N/A Rain Light Rain
7:15 AM 66.2 °F 60.8 °F 83% 29.96 in 10.0 mi SSE 8.1 mph - N/A Rain Light Rain
7:36 AM 64.4 °F 59.0 °F 83% 29.97 in 10.0 mi SSE 11.5 mph - 0.02 in Rain Heavy Rain
7:56 AM 62.6 °F 60.8 °F 94% 29.95 in 10.0 mi South 12.7 mph 19.6 mph N/A Rain Rain
8:15 AM 62.6 °F 60.8 °F 94% 29.93 in 7.0 mi South 18.4 mph 21.9 mph 0.05 in Rain Rain
8:35 AM 64.4 °F 62.6 °F 94% 29.91 in 7.0 mi South 21.9 mph 29.9 mph 0.09 in Rain Light Rain
8:55 AM 64.4 °F 60.8 °F 88% 29.92 in 10.0 mi SSE 13.8 mph - 0.11 in Rain Light Rain
9:15 AM 64.4 °F 60.8 °F 88% 29.92 in 10.0 mi SE 11.5 mph - N/A Rain Light Rain
9:36 AM 66.2 °F 60.8 °F 83% 29.90 in 10.0 mi SE 10.4 mph - N/A   Clear
9:55 AM 68.0 °F 60.8 °F 78% 29.92 in 10.0 mi SE 10.4 mph - N/A   Clear
10:15 AM 68.0 °F 62.6 °F 83% 29.93 in 10.0 mi SSE 13.8 mph 17.3 mph N/A   Clear
10:36 AM 69.8 °F 62.6 °F 78% 29.92 in 10.0 mi SE 11.5 mph - N/A   Clear
10:55 AM 69.8 °F 60.8 °F 73% 29.92 in 10.0 mi SE 11.5 mph - N/A   Clear
11:15 AM 69.8 °F 60.8 °F 73% 29.92 in 10.0 mi SE 12.7 mph 20.7 mph N/A   Clear
11:36 AM 69.8 °F 62.6 °F 78% 29.93 in 10.0 mi SE 12.7 mph - N/A   Clear
11:55 AM 69.8 °F 62.6 °F 78% 29.93 in 10.0 mi SE 13.8 mph - N/A   Clear
12:15 PM 71.6 °F 62.6 °F 73% 29.93 in 10.0 mi SE 13.8 mph - N/A   Clear
12:36 PM 71.6 °F 62.6 °F 73% 29.94 in 10.0 mi SE 10.4 mph - N/A   Clear
12:55 PM 69.8 °F 62.6 °F 78% 29.95 in 10.0 mi SE 12.7 mph - N/A   Clear
1:15 PM 71.6 °F 62.6 °F 73% 29.95 in 10.0 mi ESE 12.7 mph 16.1 mph N/A   Scattered Clouds
1:36 PM 73.4 °F 64.4 °F 73% 29.94 in 10.0 mi SE 15.0 mph 18.4 mph N/A   Mostly Cloudy
1:56 PM 73.4 °F 64.4 °F 73% 29.94 in 10.0 mi SE 15.0 mph - N/A   Scattered Clouds
2:15 PM 75.2 °F 64.4 °F 69% 29.94 in 10.0 mi SE 15.0 mph - N/A   Clear
2:35 PM 77.0 °F 64.4 °F 65% 29.94 in 10.0 mi SE 12.7 mph - N/A   Scattered Clouds
2:55 PM 77.0 °F 64.4 °F 65% 29.94 in 10.0 mi ESE 10.4 mph - N/A   Clear
3:15 PM 77.0 °F 64.4 °F 65% 29.94 in 10.0 mi SE 13.8 mph - N/A   Clear
3:35 PM 77.0 °F 64.4 °F 65% 29.94 in 10.0 mi SE 12.7 mph - N/A   Clear
3:55 PM 77.0 °F 64.4 °F 65% 29.93 in 10.0 mi SE 12.7 mph 17.3 mph N/A   Clear
4:16 PM 77.0 °F 66.2 °F 69% 29.93 in 10.0 mi SE 10.4 mph - N/A   Clear
4:35 PM 78.8 °F 66.2 °F 65% 29.93 in 10.0 mi SE 10.4 mph - N/A   Clear
4:55 PM 78.8 °F 66.2 °F 65% 29.93 in 10.0 mi SE 11.5 mph - N/A   Clear
5:16 PM 77.0 °F 66.2 °F 69% 29.93 in 10.0 mi East 8.1 mph - N/A   Scattered Clouds
5:35 PM 77.0 °F 68.0 °F 74% 29.93 in 10.0 mi East 8.1 mph - N/A   Scattered Clouds
5:55 PM 75.2 °F 68.0 °F 78% 29.93 in 10.0 mi East 8.1 mph - N/A   Clear
6:16 PM 77.0 °F 68.0 °F 74% 29.92 in 10.0 mi East 10.4 mph 18.4 mph N/A   Clear
6:35 PM 75.2 °F 68.0 °F 78% 29.91 in 10.0 mi East 16.1 mph 19.6 mph N/A   Scattered Clouds
6:55 PM 73.4 °F 68.0 °F 83% 29.92 in 10.0 mi East 11.5 mph 19.6 mph N/A   Mostly Cloudy
7:16 PM 73.4 °F 66.2 °F 78% 29.93 in 10.0 mi East 11.5 mph 18.4 mph N/A   Mostly Cloudy
7:35 PM 71.6 °F 66.2 °F 83% 29.92 in 10.0 mi East 13.8 mph 20.7 mph N/A   Scattered Clouds
7:55 PM 71.6 °F 66.2 °F 83% 29.92 in 10.0 mi East 11.5 mph 18.4 mph N/A   Scattered Clouds
8:15 PM 71.6 °F 66.2 °F 83% 29.92 in 10.0 mi East 16.1 mph 25.3 mph N/A Rain , Thunderstorm Light Thunderstorms and Rain
8:36 PM 69.8 °F 64.4 °F 83% 29.91 in 10.0 mi ENE 13.8 mph 21.9 mph N/A Rain , Thunderstorm Light Thunderstorms and Rain
8:55 PM 69.8 °F 64.4 °F 83% 29.93 in 10.0 mi ENE 15.0 mph 21.9 mph 0.01 in Rain , Thunderstorm Thunderstorms and Rain
9:15 PM 68.0 °F 64.4 °F 88% 29.89 in 7.0 mi ENE 18.4 mph 26.5 mph 0.08 in Rain , Thunderstorm Thunderstorms and Rain
9:35 PM 68.0 °F 64.4 °F 88% - 1.5 mi North - - N/A Rain , Thunderstorm Heavy Thunderstorms and Rain
9:55 PM 66.2 °F 64.4 °F 94% 29.93 in - East 16.1 mph 23.0 mph 2.46 in   Overcast
10:15 PM 66.2 °F 64.4 °F 94% 29.93 in 2.5 mi East 19.6 mph 27.6 mph 0.33 in Thunderstorm Thunderstorm
10:35 PM 62.6 °F 60.8 °F 94% 29.95 in 10.0 mi East 13.8 mph 24.2 mph 0.44 in Rain , Thunderstorm Thunderstorms and Rain
10:55 PM 64.4 °F 62.6 °F 94% 30.02 in 1.5 mi North 19.6 mph 32.2 mph 1.06 in Rain , Thunderstorm Heavy Thunderstorms and Rain
11:15 PM 60.8 °F 59.0 °F 94% 29.97 in 2.0 mi NNE 18.4 mph 26.5 mph 0.59 in Rain , Thunderstorm Heavy Thunderstorms and Rain
11:35 PM 62.6 °F 60.8 °F 94% 29.94 in 7.0 mi ENE 12.7 mph 25.3 mph 0.75 in Rain , Thunderstorm Thunderstorms and Rain
11:55 PM 62.6 °F 60.8 °F 94% 29.88 in 10.0 mi East 15.0 mph 26.5 mph 0.78 in Rain , Thunderstorm Light Thunderstorms and Rain